Location: Dompnac
(44.5644°N, 4.1026°E)
Time: 11:46:19
(UTC+00:00)

Cosmos 1891 Rocket - Pass Details

Date: 24 January 2021
Orbit: 934 x 1018 km, 82.9° (Epoch: 24 February)

Event Time Altitude Azimuth Distance (km) Brightness Sun altitude
Rises 04:29:19 0° 185° (S) 3,655 7.5 -28.5°
Reaches altitude 10° 04:31:50 10° 185° (S) 2,700 6.8 -28.1°
Maximum altitude 04:38:01 87° 98° (E) 961 4.4 -27.0°
Drops below altitude 10° 04:44:07 10° 9° (N) 2,668 6.9 -25.9°
Sets 04:46:36 0° 9° (N) 3,610 7.6 -25.5°
